Location: ??????
(55.7522°N, 37.6156°E)
Time: 16:45:12
(UTC+00:00)

Cosmos 1674 Rocket - Pass Details

Date: 14 June 2025
Orbit: 598 x 622 km, 82.5° (Epoch: 13 July)

Event Time Altitude Azimuth Distance (km) Brightness Sun altitude
Exits shadow 22:24:22 10° 163° (SSE) 1,930 5.6 -10.1°
Maximum altitude 22:28:22 42° 93° (E) 869 4.4 -10.0°
Drops below altitude 10° 22:32:29 10° 23° (NNE) 1,972 7.7 -9.8°
Sets 22:34:48 0° 17° (NNE) 2,885 9.4 -9.7°
